Location: *
(58.4167°N, 22.5000°E)
Time: 12:14:53
(UTC+00:00)

H-2A R/B - Pass Details

Date: 22 September 2019
Orbit: 579 x 655 km, 98.5° (Epoch: 15 October)

Event Time Altitude Azimuth Distance (km) Brightness Sun altitude
Exits shadow 23:12:23 31° 32° (NNE) 1,053 3.7 -30.6°
Drops below altitude 10° 23:15:18 10° 355° (N) 1,955 5.4 -30.5°
Sets 23:17:38 0° 347° (NNW) 2,875 6.3 -30.5°
